When you browse on this site, cookies collect data to enhance your experience and personalize the content and advertising you see.
Visit our Privacy Policy to learn more. By continuing to use the site, you agree to this use of cookies and data.
  • In Portugal
  • List of Countries
  • For 7 days
  • Water Temperature
  • Satellite Maps
  • Weather Map
  • Weather Widgets
  • user-avatar
    Login

    Hourly Weather Lowech

    Today, 19 January, Saturday

    Time Temperature Precipitation Wind Pressure Humidity
    00:00 +3°C° 0 mm 2 mps 736 mmHg 65%
    01:00 +4°C° 0 mm 1 mps 736 mmHg 68%
    02:00 +3°C° 0 mm 2 mps 736 mmHg 73%
    03:00 +4°C° 0 mm 1 mps 736 mmHg 76%
    04:00 +4°C° 0 mm 1 mps 737 mmHg 78%
    05:00 +4°C° 0 mm 1 mps 737 mmHg 81%
    06:00 +4°C° 0.2 mm 1 mps 737 mmHg 83%
    07:00 +3°C° 0.2 mm 0 mps 737 mmHg 85%
    08:00 +3°C° 0 mm 0 mps 737 mmHg 86%
    09:00 +4°C° 0.4 mm 1 mps 738 mmHg 88%
    10:00 +4°C° 0.4 mm 1 mps 738 mmHg 89%
    11:00 +4°C° 0.4 mm 1 mps 738 mmHg 90%
    12:00 +5°C° 0.2 mm 1 mps 738 mmHg 90%
    13:00 +4°C° 0.2 mm 2 mps 738 mmHg 90%
    14:00 +3°C° 0 mm 3 mps 739 mmHg 89%
    15:00 +3°C° 0 mm 2 mps 739 mmHg 91%
    16:00 +3°C° 0 mm 2 mps 739 mmHg 92%
    17:00 +2°C° 0 mm 2 mps 739 mmHg 93%
    18:00 +2°C° 0 mm 2 mps 739 mmHg 93%
    19:00 +1°C° 0 mm 2 mps 739 mmHg 93%
    20:00 +2°C° 0 mm 1 mps 739 mmHg 93%
    21:00 +2°C° 0 mm 1 mps 739 mmHg 93%
    22:00 +2°C° 0 mm 1 mps 739 mmHg 93%
    23:00 +2°C° 0 mm 1 mps 739 mmHg 93%

    Tomorrow, 20 January, Sunday

    Time Temperature Precipitation Wind Pressure Humidity
    00:00 +2°C° 0 mm 1 mps 739 mmHg 93%
    01:00 +2°C° 0 mm 1 mps 738 mmHg 93%
    02:00 +2°C° 0 mm 1 mps 738 mmHg 94%
    03:00 +2°C° 0 mm 1 mps 738 mmHg 94%
    04:00 +2°C° 0 mm 1 mps 737 mmHg 94%
    05:00 +2°C° 0 mm 1 mps 737 mmHg 94%
    06:00 +2°C° 0 mm 1 mps 737 mmHg 95%
    07:00 +2°C° 0 mm 1 mps 737 mmHg 95%
    08:00 +1°C° 0 mm 0 mps 736 mmHg 95%
    09:00 +2°C° 0.1 mm 0 mps 736 mmHg 94%
    10:00 +3°C° 0.1 mm 0 mps 736 mmHg 93%
    11:00 +3°C° 0.1 mm 0 mps 736 mmHg 92%
    12:00 +5°C° 0.1 mm 1 mps 736 mmHg 91%
    13:00 +5°C° 0.1 mm 1 mps 735 mmHg 91%
    14:00 +5°C° 0.1 mm 1 mps 735 mmHg 91%
    15:00 +4°C° 0.1 mm 0 mps 735 mmHg 92%
    16:00 +3°C° 0.1 mm 0 mps 734 mmHg 94%
    17:00 +3°C° 0.1 mm 0 mps 734 mmHg 95%
    18:00 +2°C° 0.1 mm 0 mps 734 mmHg 95%
    19:00 +3°C° 0.1 mm 1 mps 735 mmHg 95%
    20:00 +3°C° 0.1 mm 1 mps 735 mmHg 95%
    21:00 +3°C° 0 mm 1 mps 735 mmHg 96%
    22:00 +2°C° 0 mm 1 mps 735 mmHg 96%
    23:00 +2°C° 0 mm 1 mps 735 mmHg 96%

    Day after tomorrow, 21 January, Monday

    Time Temperature Precipitation Wind Pressure Humidity
    00:00 +2°C° 0 mm 1 mps 735 mmHg 95%
    01:00 +2°C° 0 mm 1 mps 736 mmHg 94%
    02:00 +2°C° 0 mm 1 mps 736 mmHg 94%
    03:00 +2°C° 0 mm 1 mps 736 mmHg 93%
    04:00 +2°C° 0 mm 1 mps 736 mmHg 92%
    05:00 +2°C° 0 mm 1 mps 736 mmHg 91%
    06:00 +2°C° 0 mm 1 mps 736 mmHg 91%
    07:00 +2°C° 0 mm 1 mps 736 mmHg 90%
    08:00 +2°C° 0 mm 1 mps 737 mmHg 90%
    09:00 +3°C° 0 mm 1 mps 737 mmHg 86%
    10:00 +4°C° 0 mm 1 mps 737 mmHg 83%
    11:00 +6°C° 0 mm 1 mps 738 mmHg 79%
    12:00 +6°C° 0 mm 1 mps 738 mmHg 78%
    13:00 +6°C° 0 mm 1 mps 738 mmHg 77%
    14:00 +6°C° 0 mm 1 mps 738 mmHg 75%
    15:00 +6°C° 0 mm 1 mps 738 mmHg 79%
    16:00 +5°C° 0 mm 1 mps 738 mmHg 82%
    17:00 +4°C° 0 mm 1 mps 738 mmHg 85%
    18:00 +4°C° 0 mm 1 mps 738 mmHg 86%
    19:00 +4°C° 0 mm 1 mps 739 mmHg 87%
    20:00 +3°C° 0 mm 1 mps 739 mmHg 88%
    21:00 +3°C° 0 mm 1 mps 739 mmHg 89%
    22:00 +2°C° 0 mm 2 mps 739 mmHg 90%
    23:00 +2°C° 0 mm 2 mps 740 mmHg 91%

    22 January, Tuesday

    Time Temperature Precipitation Wind Pressure Humidity
    00:00 +1°C° 0 mm 2 mps 739 mmHg 91%
    01:00 +1°C° 0 mm 2 mps 739 mmHg 91%
    02:00 +2°C° 0 mm 1 mps 739 mmHg 91%
    03:00 +1°C° 0 mm 1 mps 739 mmHg 92%
    04:00 +1°C° 0 mm 1 mps 738 mmHg 92%
    05:00 +1°C° 0 mm 1 mps 738 mmHg 93%
    06:00 +1°C° 0 mm 1 mps 738 mmHg 93%
    07:00 +1°C° 0 mm 1 mps 738 mmHg 92%
    08:00 +1°C° 0 mm 1 mps 738 mmHg 92%
    09:00 +2°C° 0 mm 1 mps 738 mmHg 89%
    10:00 +3°C° 0 mm 1 mps 737 mmHg 85%
    11:00 +4°C° 0 mm 1 mps 737 mmHg 81%
    12:00 +5°C° 0 mm 1 mps 737 mmHg 80%
    13:00 +6°C° 0 mm 1 mps 736 mmHg 78%
    14:00 +7°C° 0 mm 1 mps 735 mmHg 76%
    15:00 +6°C° 0 mm 1 mps 735 mmHg 80%
    16:00 +5°C° 0 mm 1 mps 734 mmHg 84%
    17:00 +5°C° 0 mm 1 mps 733 mmHg 87%
    18:00 +4°C° 0 mm 1 mps 733 mmHg 88%
    19:00 +4°C° 0 mm 1 mps 733 mmHg 90%
    20:00 +3°C° 0 mm 1 mps 732 mmHg 91%
    21:00 +3°C° 0 mm 1 mps 732 mmHg 91%
    22:00 +3°C° 0 mm 1 mps 732 mmHg 91%
    23:00 +3°C° 0 mm 1 mps 731 mmHg 90%

    23 January, Wednesday

    Time Temperature Precipitation Wind Pressure Humidity
    00:00 +3°C° 0 mm 1 mps 730 mmHg 91%
    01:00 +3°C° 0 mm 1 mps 730 mmHg 91%
    02:00 +3°C° 0 mm 1 mps 729 mmHg 92%
    03:00 +3°C° 0 mm 1 mps 729 mmHg 92%
    04:00 +4°C° 0 mm 1 mps 728 mmHg 92%
    05:00 +4°C° 0 mm 1 mps 727 mmHg 93%
    06:00 +4°C° 0.1 mm 1 mps 727 mmHg 93%
    07:00 +4°C° 0.1 mm 1 mps 727 mmHg 93%
    08:00 +4°C° 0.1 mm 1 mps 726 mmHg 93%
    09:00 +4°C° 0.3 mm 1 mps 726 mmHg 92%
    10:00 +5°C° 0.3 mm 1 mps 726 mmHg 92%
    11:00 +6°C° 0.3 mm 1 mps 726 mmHg 91%
    12:00 +7°C° 0 mm 1 mps 726 mmHg 86%
    13:00 +8°C° 0 mm 1 mps 726 mmHg 81%
    14:00 +10°C° 0 mm 1 mps 726 mmHg 76%
    15:00 +9°C° 0 mm 1 mps 726 mmHg 79%
    16:00 +8°C° 0 mm 1 mps 726 mmHg 83%
    17:00 +7°C° 0 mm 1 mps 726 mmHg 86%
    18:00 +7°C° 0 mm 1 mps 726 mmHg 86%
    19:00 +7°C° 0 mm 1 mps 727 mmHg 85%
    20:00 +7°C° 0 mm 1 mps 727 mmHg 84%
    21:00 +6°C° 0 mm 1 mps 727 mmHg 85%
    22:00 +6°C° 0 mm 1 mps 727 mmHg 87%
    23:00 +6°C° 0 mm 1 mps 727 mmHg 88%

    24 January, Thursday

    Time Temperature Precipitation Wind Pressure Humidity
    00:00 +5°C° 0 mm 1 mps 727 mmHg 89%
    01:00 +5°C° 0 mm 1 mps 726 mmHg 91%
    02:00 +5°C° 0 mm 1 mps 726 mmHg 93%
    03:00 +5°C° 0 mm 1 mps 726 mmHg 93%
    04:00 +4°C° 0 mm 1 mps 726 mmHg 94%
    05:00 +4°C° 0 mm 1 mps 725 mmHg 94%
    06:00 +4°C° 0.1 mm 1 mps 725 mmHg 95%
    07:00 +4°C° 0.1 mm 1 mps 725 mmHg 95%
    08:00 +4°C° 0.1 mm 1 mps 726 mmHg 95%
    09:00 +5°C° 0 mm 1 mps 725 mmHg 93%
    10:00 +5°C° 0 mm 1 mps 725 mmHg 91%
    11:00 +6°C° 0 mm 1 mps 725 mmHg 89%
    12:00 +6°C° 0 mm 1 mps 725 mmHg 89%
    13:00 +7°C° 0 mm 1 mps 724 mmHg 89%
    14:00 +6°C° 0 mm 2 mps 723 mmHg 88%
    15:00 +6°C° 0.6 mm 1 mps 723 mmHg 91%
    16:00 +6°C° 0.6 mm 1 mps 723 mmHg 93%
    17:00 +6°C° 0.6 mm 1 mps 723 mmHg 96%
    18:00 +6°C° 0.5 mm 1 mps 723 mmHg 96%
    19:00 +6°C° 0.5 mm 1 mps 722 mmHg 96%
    20:00 +5°C° 0.5 mm 0 mps 722 mmHg 96%
    21:00 +5°C° 0.2 mm 0 mps 722 mmHg 96%
    22:00 +6°C° 0.2 mm 1 mps 722 mmHg 95%
    23:00 +6°C° 0.2 mm 1 mps 722 mmHg 94%
    Show more